Regional Weather Roundup
Issued by NWS

Home | Current Version | Previous Version | Graphics & Text | Print | Product List | Glossary On
Versions: 1 2 3 4 5 6 7 8 9 10 11 12 13 14 15 16 17 18 19 20 21 22 23 24 25 26 27 28 29 30 31 32 33 34 35 36 37 38 39 40 41 42 43 44 45 46 47 48 49 50
861
ASUS43 KTOP 211759
RWRKS

WEATHER ROUNDUP FOR KANSAS
NATIONAL WEATHER SERVICE GOODLAND KS
100 PM CDT THU MAY 21 2015

NOTE:  "FAIR" INDICATES FEW OR NO CLOUDS BELOW 12,000 FEET WITH NO
SIGNIFICANT WEATHER AND/OR OBSTRUCTIONS TO VISIBILITY.

KSZ001>006-013>018-027>032-041>047-211900-
NORTHWEST KANSAS

CITY           SKY/WX    TMP DP  RH WIND       PRES   REMARKS
GOODLAND       CLOUDY    54  40  59 SE7       30.27F
6HR MIN TEMP:  44; 6HR MAX TEMP:  55;

HAYS           SUNNY     57  37  47 E7        30.30F
HILL CITY      SUNNY     59  39  47 E7        30.30F
6HR MIN TEMP:  37; 6HR MAX TEMP:  60;

RUSSELL        SUNNY     59  39  47 SE6       30.28F
6HR MIN TEMP:  39; 6HR MAX TEMP:  59;

$$

KSZ061>065-074>080-084>089-211900-
SOUTHWEST KANSAS

CITY           SKY/WX    TMP DP  RH WIND       PRES   REMARKS
DODGE CITY     PTSUNNY   55  38  52 CALM      30.29F
6HR MIN TEMP:  43; 6HR MAX TEMP:  57;

ELKHART          N/A     55  43  64 SE7         N/A
GARDEN CITY    CLOUDY    54  40  59 E7        30.29S
6HR MIN TEMP:  44; 6HR MAX TEMP:  54;

GREAT BEND     SUNNY     57  39  51 E5        30.29F
LIBERAL        CLOUDY    54  39  58 CALM      30.31F
$$

KSZ066>073-081>083-090>101-211900-
SOUTHEAST KANSAS

CITY           SKY/WX    TMP DP  RH WIND       PRES   REMARKS
CHANUTE        MOSUNNY   61  45  55 NE6       30.29S
6HR MIN TEMP:  46; 6HR MAX TEMP:  61;

COFFEYVILLE    PTSUNNY   59  45  59 MISG      30.29S
6HR MIN TEMP:  47; 6HR MAX TEMP:  61;

HUTCHINSON     SUNNY     62  41  46 E9G20     30.30F
6HR MIN TEMP:  44; 6HR MAX TEMP:  63;

NEWTON         SUNNY     57  39  51 NE5       30.32S
PARSONS        PTSUNNY   61  47  59 VRB5      30.29F
6HR MIN TEMP:  46; 6HR MAX TEMP:  61;

WICHITA INTL   MOSUNNY   60  42  51 E10G21    30.29F
6HR MIN TEMP:  45; 6HR MAX TEMP:  62;

WICHITA JABRA  MOSUNNY   60  43  53 NE9       30.29F
6HR MIN TEMP:  43; 6HR MAX TEMP:  61;

WINFIELD       PTSUNNY   61  45  55 NE7       30.30S
6HR MIN TEMP:  46; 6HR MAX TEMP:  61;

$$

KSZ007>012-019>026-033>040-048>060-102>105-211900-
NORTHEAST KANSAS

CITY           SKY/WX    TMP DP  RH WIND       PRES   REMARKS
CONCORDIA      SUNNY     61  38  42 VRB6      30.30F
6HR MIN TEMP:  40; 6HR MAX TEMP:  62;

EMPORIA        SUNNY     60  41  49 NE8       30.29S
6HR MIN TEMP:  42; 6HR MAX TEMP:  60;

LAWRENCE       MOSUNNY   62  42  47 CALM      30.28S
6HR MIN TEMP:  45; 6HR MAX TEMP:  63;

MANHATTAN      SUNNY     64  40  41 VRB5      30.29F
6HR MIN TEMP:  42; 6HR MAX TEMP:  64;

OLATHE IND     SUNNY     59  41  51 N9        30.28F
6HR MIN TEMP:  46; 6HR MAX TEMP:  61;

OLATHE EXE     SUNNY     62  42  47 MISG      30.27S
6HR MIN TEMP:  47; 6HR MAX TEMP:  62;

SALINA         MOSUNNY   61  39  44 CALM      30.31S
6HR MIN TEMP:  42; 6HR MAX TEMP:  63;

TOPEKA BILLARD MOSUNNY   63  42  46 E6        30.28S
6HR MIN TEMP:  44; 6HR MAX TEMP:  64;

TOPEKA FORBES  SUNNY     63  42  46 N5        30.28S
6HR MIN TEMP:  45; 6HR MAX TEMP:  63;

$$



USA.gov is the U.S. government's official web portal to all federal, state and local government web resources and services.